www.pogodaiklimat.ru

Погода и климат >> Архив погоды >> Канада >> Baker Lake Airport


ПОГОДА в Baker Lake Airport

  • Прогноз погоды в Baker Lake Airport
  • Монитор погоды в Baker Lake Airport
  • Климат города

АРХИВ ПОГОДЫ в Baker Lake Airport

Время (UTC), дата Ветер
(напр.,м/с)
 
Видим.   Явления Облачность Т
(С)
Тd
(С)
f
(%)
Тe
(С)
Тes
(С)
Комфортность P
(гПа)
Po
(гПа)
Тmin
(С)
Tmax
(С)
R
(мм)
R24
(мм)
S
(см)
06 19.04 ЮЗ 4 24 км слабый снег 10/10 600 м
[Sc]
-14.7 -17.7 78 -23 -23 1011.8 1009.3 -23.4 -14.0 181
09 19.04 З 7 24 км 5/5 1500 м
[]
-16.4 -19.1 80 -27 -27 1012.4 1009.9
12 19.04 З 9 24 км {снег} 9/9 1000 м
[Sc Ac cuf]
-17.4 -20.4 77 -29 -29 1012.6 1010.1 -19.1 -14.0 68
15 19.04 З 9 40 км 9/9 1000 м
[]
-16.8 -20.3 74 -29 -29 1013.0 1010.5
18 19.04 З 8 40 км 9/9 1000 м
[Sc]
-14.0 -17.7 74 -24 -24 1014.2 1011.7 -19.1 -14.0
21 19.04 З 6 40 км 9/9 1000 м
[]
-11.9 -15.8 73 -20 -20 1015.8 1013.3
00 20.04 З 6 40 км ясно -13.7 -17.1 75 -23 -23 1017.3 1014.8 -19.1 -11.4
03 20.04 З 6 24 км 3/3 1500 м
[]
-18.6 -21.4 79 -29 -29 1018.5 1016.0
06 20.04 ЮЗ 3 24 км 3/3 1000 м
[Sc]
-20.0 -22.5 80 -28 -28 1018.9 1016.4 -20.0 -11.4 151
09 20.04 С 1 24 км 6/6 600 м
[]
-21.1 -23.6 80 -24 -24 1019.1 1016.6
12 20.04 З 1 30 км 6/6 600 м
[Sc]
-21.4 -24.0 79 -25 -25 1019.7 1017.2 -22.0 -11.4 51
15 20.04 С 1 40 км 10/0
[]
-19.8 -22.9 76 -20 -17 1019.5 1017.0
18 20.04 В 1 40 км 9/0 2000 м
[Ac As Ci sp]
-17.5 -20.8 75 -20 -14 1019.1 1016.6 -22.0 -17.3
21 20.04 СВ 3 24 км 10/10 1000 м
[]
-14.7 -17.7 78 -21 -21 1018.7 1016.2
00 21.04 С 5 4000 м слабый снег 10/10 600 м
[Sc]
-14.6 -17.3 80 -23 -23 1019.3 1016.8 -22.0 -14.2 0.0 51
03 21.04 С 8 16 км 8/8 600 м
[]
-16.2 -18.9 80 -27 -27 1020.2 1017.7
06 21.04 СЗ 7 24 км слабый снег 8/8 600 м
[Sc]
-16.1 -18.8 80 -26 -26 1021.6 1019.1 -22.0 -14.2 0.2 30
09 21.04 СЗ 8 24 км 9/9 300 м
[]
-17.2 -20.0 79 -29 -29 1023.1 1020.6
12 21.04 СЗ 11 24 км слабый снег 9/9 300 м
[Sc]
-22.9 -26.0 76 -38 -38 опасность
обморожения
1024.6 1022.1 -22.9 -14.2 0.4 51
15 21.04 СЗ 10 4800 м ясно -21.8 -25.3 73 -36 -36 опасность
обморожения
1025.4 1022.9
18 21.04 СЗ 11 6000 м пыльная буря ясно -18.5 -22.2 73 -32 -32 опасность
обморожения
1026.4 1023.9 -23.5 -15.8 0.0 68
21 21.04 С 12 8000 м ясно -17.0 -20.4 75 -31 -31 опасность
обморожения
1028.2 1025.7
00 22.04 СЗ 11 8000 м пыльная буря ясно -17.8 -21.1 75 -31 -31 опасность
обморожения
1029.5 1027.0 -23.5 -16.8 0.0 68
03 22.04 СЗ 12 30 км ясно -20.5 -23.6 76 -35 -35 опасность
обморожения
1030.1 1027.6
06 22.04 СЗ 11 24 км 3/1 600 м
[Sc Ci fib]
-22.0 -25.2 75 -37 -37 опасность
обморожения
1030.3 1027.8 -23.5 -15.8 191
09 22.04 СЗ 8 24 км 8/8 600 м
[]
-21.3 -24.6 75 -34 -34 опасность
обморожения
1030.5 1028.0
12 22.04 СЗ 7 30 км слабый снег 10/10 600 м
[Sc Ac trans]
-20.9 -24.1 75 -33 -33 опасность
обморожения
1030.3 1027.8 -23.1 -15.8 0.0 51
15 22.04 СЗ 9 24 км 9/9 600 м
[]
-19.8 -23.6 72 -33 -33 опасность
обморожения
1029.7 1027.2
18 22.04 СЗ 8 24 км слабый снег 8/8 600 м
[Sc]
-18.9 -23.1 69 -31 -30 опасность
обморожения
1029.1 1026.6 -23.1 -18.7 0.0 51
21 22.04 СЗ 8 30 км 8/8 300 м
[]
-18.6 -23.1 68 -30 -30 1028.5 1026.0
00 23.04 СЗ 5 30 км {снег} 3/1 1500 м
[Sc Cs]
-19.5 -23.8 69 -30 -29 1028.2 1025.7 -23.1 -18.1 0.0 51
03 23.04 СЗ 6 30 км 10/10 600 м
[]
-23.0 -26.3 74 -35 -35 опасность
обморожения
1027.9 1025.4
06 23.04 СЗ 6 24 км 1/1 600 м
[Sc]
-25.3 -28.7 73 -38 -38 опасность
обморожения
1027.8 1025.3 -25.3 -18.1 71
09 23.04 СЗ 9 24 км ясно -26.2 -29.4 74 -41 -41 опасность
обморожения
1027.4 1024.9
12 23.04 СЗ 11 30 км 4/4 600 м
[Sc Ac trans]
-26.2 -29.9 71 -43 -43 опасность
обморожения
1027.6 1025.1 -26.8 -18.1 51
15 23.04 С 8 30 км 8/8 300 м
[]
-22.6 -26.2 72 -36 -36 опасность
обморожения
1028.1 1025.6
18 23.04 С 6 30 км слабый снег 5/5 300 м
[Sc]
-19.5 -24.0 67 -30 -28 1028.7 1026.2 -26.8 -19.5 0.0 51
21 23.04 С 6 30 км 4/4 300 м
[]
-17.4 -21.5 70 -28 -26 1029.0 1026.5
00 24.04 СЗ 5 30 км {снег} 1/1 300 м
[Sc]
-17.9 -21.6 73 -27 -26 1029.3 1026.8 -26.8 -17.0 0.0 51
03 24.04 СЗ 8 30 км 9/9 1500 м
[]
-18.8 -21.9 76 -31 -31 опасность
обморожения
1029.0 1026.5
06 24.04 СЗ 10 24 км 10/10 1500 м
[Sc]
-18.3 -21.4 77 -31 -31 опасность
обморожения
1029.0 1026.5 -26.8 -17.0 171
09 24.04 СЗ 8 24 км 3/3 1500 м
[]
-21.1 -24.3 75 -34 -34 опасность
обморожения
1029.5 1027.0
12 24.04 СЗ 8 30 км 3/3 300 м
[Sc]
-21.6 -24.9 75 -34 -34 опасность
обморожения
1030.2 1027.7 -22.4 -17.0 51
15 24.04 СЗ 6 30 км 4/4 1500 м
[]
-19.8 -23.5 72 -30 -29 1030.9 1028.4
18 24.04 С 6 24 км 6/6 1500 м
[Sc Ac lent Cc]
-18.6 -23.1 68 -29 -27 1030.6 1028.1 -22.4 -18.3 68
21 24.04 СЗ 4 30 км 8/8 300 м
[]
-17.5 -21.4 72 -26 -25 1030.3 1027.8
00 25.04 З 5 30 км 10/10 300 м
[Sc Ac inh Cc]
-17.4 -21.5 70 -26 -26 1029.5 1027.0 -22.4 -16.6 68
03 25.04 З 3 24 км 10/10 300 м
[]
-19.7 -22.8 76 -27 -27 1028.9 1026.4
06 25.04 ЮЗ 5 24 км слабый снег 10/10 300 м
[Sc]
-18.3 -21.1 79 -28 -28 1028.8 1026.3 -22.4 -16.6 0.0 81
09 25.04 ЮЗ 5 24 км ясно -22.2 -25.2 77 -32 -32 опасность
обморожения
1028.3 1025.8
12 25.04 ЮЗ 4 40 км {снег} 4/4 300 м
[Sc]
-24.8 -27.6 77 -35 -35 опасность
обморожения
1027.7 1025.2 -25.3 -16.6 0.0 51
15 25.04 Ю 5 30 км 3/3 300 м
[]
-22.7 -26.1 74 -33 -31 опасность
обморожения
1026.4 1023.9
18 25.04 Ю 4 30 км 1/1 600 м
[Sc]
-19.0 -23.0 71 -28 -22 1024.7 1022.2 -25.3 -18.2
21 25.04 Ю 6 30 км 5/5 600 м
[]
-15.2 -19.3 71 -25 -23 1023.1 1020.6
00 26.04 Ю 3 30 км 4/4 600 м
[Sc Ac trans Ci fib]
-14.7 -18.2 75 -21 -20 1020.7 1018.2 -25.3 -14.2
03 26.04 Ю 3 40 км ясно -16.9 -19.6 80 -23 -23 1019.3 1016.8

 

Местоположение метеостанции Baker Lake Airport (Канада): широта 64.30 долгота -96.06 высота над уровнем моря 18 м.

В архиве по умолчанию представлена погода в Baker Lake Airport за последнюю неделю. Архивные данные за месяц целиком и за предыдущие месяцы, начиная с января 2011 года, Вы можете получить, выбрав интересующий диапазон дат из раскрывающегося списка и нажав кнопку "Ввод!".

Внимание! Время в таблицах - всемирное. Для получения местного времени необходимо прибавить поправку, которая в Baker Lake Airport равна -6 ч.

Смотрите также архив погоды в соседних городах и на ближайших метеорологических станциях:

Погода в Baker Lake Climate (Канада) (4 км)
Погода в Back River MAPS (Канада) (199 км)
Погода в Rankin Inlet (Канада) (256 км)
Погода в Dubawnt Lake (Канада) (302 км)
Погода в Robertson Lake (Канада) (314 км)
Погода в Wager Bay (Канада) (357 км)
Погода в Arviat Climate (Канада) (370 км)
Погода в Arviat (Канада) (370 км)
Погода в Arviat Airport (Канада) (371 км)
Погода в Hanbury River ARS (Канада) (451 км)

Пояснения к столбцам:

Ветер - указаны скорость ветра в м/с - средняя за 10 мин, порывы в срок и между сроками (в фигурных скобках) и направление, откуда дует ветер: С - северный, СВ - северо-восточный, В - восточный, ЮВ - юго-восточный, Ю - южный, ЮЗ - юго-западный, З - западный, СЗ - северо-западный.
Видимость - горизонтальная дальность видимости в метрах или километрах. При видимости от 1 до 10 км при отсутствии осадков обычно наблюдается дымка, при ухудшении видимости до 1 км и менее - туман. В сухую погоду видимость может ухудшаться дымом, пылью или мглою.
Явления - указаны атмосферные явления, наблюдавшиеся в срок или в последний час перед сроком; фигурными скобками обозначены явления, наблюдавшиеся между сроками (за 1-3 часа до срока); квадратными скобками обозначены град или гололедные отложения с указанием их диаметра в мм.
Облачность - указаны через наклонную черту общая и нижняя облачность в баллах и высота нижней границы облаков в метрах; квадратными скобками обозначены формы облаков: Ci - перистые, Cs - перисто-слоистые, Cc - перисто-кучевые, Ac - высококучевые, As - высокослоистые, Sc - слоисто-кучевые, Ns - слоисто-дождевые, Cu - кучевые, Cb - кучево-дождевые. Подробнее классификацию облаков см. в Атласе облаков (PDF).
T - Температура воздуха - температура, измеренная на высоте 2 м над землей.
Td - Температура точки росы - температура, при понижении до которой содержащийся в воздухе водяной пар достигнет насыщения.
f - Относительная влажность воздуха - влажноcть воздуха, измеренная на высоте 2 м над землей.
Te - Эффективная температура - температура, которую ощущает одетый по сезону человек в тени. Характеристика душности погоды. При расчете учитывается влияние влажности воздуха и скорости ветра на теплоощущения человека.
Tes - Эффективная температура на солнце - температура, которую ощущает человек, с поправкой на солнечный нагрев. Характеристика знойности погоды. Зависит от высоты солнца над горизонтом, облачности и скорости ветра. Ночью, в пасмурную погоду, а также при ветре 12 м/с и более поправка равна нулю.
P - Атмосферное давление - приведенное к уровню моря атмосферное давление.
Po - Атмосферное давление - измеренное на уровне метеостанции атмосферное давление.
Tmin - Минимальная температура - минимум температуры воздуха на высоте 2 м над землей.
Tmax - Максимальная температура - максимум температуры воздуха на высоте 2 м над землей.
R - Количество осадков - Количество выпавших осадков за период времени, мм. При наведении курсора мыши на число - период времени, за который выпало указанное количество осадков.
R24 - Количество осадков - Количество выпавших осадков за 24 часа, мм.
S - Снежный покров - Высота снежного покрова, см. При наведении курсора мыши на число - состояние снежного покрова и степень покрытия местности в баллах.